Weather History for Lee's Summit, MO

Change the Weather History Date:

Wednesday, August 7, 2013

  Actual Average (KMKC) Record (KMKC)
Temperature  
Mean Temperature 78 °F -  
Max Temperature 86 °F 85 °F 105 °F (2012)
Min Temperature 71 °F 67 °F 59 °F (2004)
Cooling Degree Days 14    
Growing Degree Days 28 (Base 50)    
Moisture  
Dew Point 70 °F    
Average Humidity 83    
Maximum Humidity 94    
Minimum Humidity 57    
Precipitation  
Precipitation 1.79 in - - ()
Sea Level Pressure  
Sea Level Pressure 29.88 in    
Wind  
Wind Speed 7 mph (West)    
Max Wind Speed 18 mph    
Max Gust Speed 32 mph    
Visibility 7 miles    
Events Rain , Thunderstorm    
Averages and records for this station are not official NWS values.
T = Trace of Precipitation, MM = Missing Value Source: NWS Daily Summary

Daily Weather History Graph

Daily Weather History Graph

Search for Another Location

Airport:

Trip Planner

Search our weather history database for the weather conditions in past years. The results will help you decide how hot, cold, wet, or windy it might be!

Date:

Astronomy

Aug. 07, 2013 Rise Set
Actual Time 6:23 AM CDT 8:21 PM CDT
Civil Twilight 5:54 AM CDT 8:50 PM CDT
Nautical Twilight 5:19 AM CDT 9:26 PM CDT
Astronomical Twilight 4:40 AM CDT 10:04 PM CDT
Moon 7:12 AM CDT (8/7) 8:30 PM CDT (8/7)
Length of Visible Light 14h 56m
Length of Day
13h 57m
New Moon, 1% of the Moon is Illuminated
Aug 7
New Moon
Aug 14
First Quarter
Aug 20
Full
Aug 28
Last Quarter
Sep 5
New

Hourly Weather History & Observations

Time (CDT) Temp. Heat Index Dew Point Humidity Pressure Visibility Wind Dir Wind Speed Gust Speed Precip Events Conditions
12:53 AM 79.0 °F - 73.9 °F 84% 29.83 in 10.0 mi SSE 3.5 mph - N/A   Clear
1:53 AM 78.1 °F - 73.9 °F 87% 29.78 in 10.0 mi Calm Calm - N/A   Clear
2:53 AM 78.1 °F - 72.0 °F 81% 29.78 in 10.0 mi South 4.6 mph - N/A   Overcast
3:53 AM 78.1 °F - 73.0 °F 84% 29.78 in 10.0 mi Calm Calm - N/A   Overcast
4:03 AM 77.0 °F - 73.4 °F 89% 29.81 in 1.8 mi Variable 6.9 mph - 0.05 in Rain , Thunderstorm Heavy Thunderstorms and Rain
4:11 AM 77.0 °F - 71.6 °F 83% 29.82 in 4.0 mi WSW 16.1 mph 26.5 mph 0.11 in Rain , Thunderstorm Light Thunderstorms and Rain
4:21 AM 75.2 °F - 69.8 °F 83% 29.86 in 2.5 mi West 16.1 mph 32.2 mph 0.27 in Rain , Thunderstorm Thunderstorms and Rain
4:25 AM 73.4 °F - 69.8 °F 88% 29.86 in 1.8 mi West 16.1 mph 26.5 mph 0.46 in Rain , Thunderstorm Heavy Thunderstorms and Rain
4:29 AM 71.6 °F - 69.8 °F 94% 29.85 in 0.8 mi WSW 18.4 mph 27.6 mph 0.65 in Rain , Thunderstorm Heavy Thunderstorms and Rain
4:40 AM 71.6 °F - 69.8 °F 94% 29.85 in 1.0 mi WSW 13.8 mph 28.8 mph 1.02 in Rain , Thunderstorm Heavy Thunderstorms and Rain
4:49 AM 71.6 °F - 69.8 °F 94% 29.86 in 3.0 mi West 9.2 mph 20.7 mph 1.10 in Rain , Thunderstorm Heavy Thunderstorms and Rain
4:53 AM 72.0 °F - 69.1 °F 91% 29.83 in 5.0 mi West 6.9 mph - 1.10 in Rain , Thunderstorm Light Thunderstorms and Rain
5:00 AM 71.6 °F - 69.8 °F 94% 29.85 in 9.0 mi West 9.2 mph - 0.00 in Rain , Thunderstorm Light Thunderstorms and Rain
5:39 AM 73.4 °F - 69.8 °F 88% 29.88 in 5.0 mi West 8.1 mph 16.1 mph 0.08 in Rain , Thunderstorm Thunderstorms and Rain
5:53 AM 73.0 °F - 70.0 °F 90% 29.86 in 4.0 mi West 3.5 mph - 0.12 in Rain , Thunderstorm Light Rain
6:09 AM 73.4 °F - 69.8 °F 88% 29.89 in 1.8 mi Variable 6.9 mph - 0.17 in Rain , Thunderstorm Heavy Thunderstorms and Rain
6:11 AM 71.6 °F - 69.8 °F 94% 29.89 in 1.2 mi WSW 8.1 mph - 0.20 in Rain , Thunderstorm Heavy Thunderstorms and Rain
6:20 AM 73.4 °F - 69.8 °F 88% 29.89 in 3.0 mi WSW 5.8 mph - 0.23 in Rain , Thunderstorm Thunderstorms and Rain
6:34 AM 71.6 °F - 69.8 °F 94% 29.89 in 2.0 mi Variable 3.5 mph - 0.34 in Rain , Thunderstorm Heavy Thunderstorms and Rain
6:42 AM 71.6 °F - 69.8 °F 94% 29.89 in 1.5 mi West 9.2 mph - 0.43 in Rain , Thunderstorm Heavy Thunderstorms and Rain
6:48 AM 71.6 °F - 69.8 °F 94% 29.89 in 3.0 mi West 8.1 mph - 0.45 in Rain , Thunderstorm Rain
6:53 AM 72.0 °F - 70.0 °F 93% 29.87 in 4.0 mi West 6.9 mph - 0.47 in Rain , Thunderstorm Thunderstorms and Rain
7:22 AM 71.6 °F - 69.8 °F 94% 29.90 in 7.0 mi Calm Calm - 0.08 in Rain Light Rain
7:53 AM 72.0 °F - 70.0 °F 93% 29.86 in 10.0 mi Calm Calm - 0.09 in   Scattered Clouds
8:53 AM 73.0 °F - 70.0 °F 90% 29.86 in 10.0 mi Variable 3.5 mph - N/A   Partly Cloudy
9:53 AM 75.0 °F - 70.0 °F 84% 29.91 in 10.0 mi NE 16.1 mph 21.9 mph 0.01 in   Mostly Cloudy
10:22 AM 75.2 °F - 71.6 °F 89% 29.96 in 10.0 mi ESE 3.5 mph - N/A   Overcast
10:53 AM 75.9 °F - 70.0 °F 82% 29.91 in 10.0 mi SE 6.9 mph - N/A   Mostly Cloudy
11:08 AM 75.2 °F - 69.8 °F 83% 29.94 in 10.0 mi SE 4.6 mph - N/A   Scattered Clouds
11:53 AM 79.0 °F - 71.1 °F 77% 29.91 in 10.0 mi WSW 8.1 mph - N/A   Clear
12:32 PM 80.6 °F 84.6 °F 71.6 °F 74% 29.94 in 10.0 mi West 8.1 mph - N/A   Mostly Cloudy
12:46 PM 80.6 °F 84.6 °F 71.6 °F 74% 29.94 in 10.0 mi Variable 4.6 mph - N/A   Scattered Clouds
12:53 PM 81.0 °F 84.9 °F 71.1 °F 72% 29.91 in 10.0 mi WSW 6.9 mph - N/A   Scattered Clouds
1:53 PM 81.0 °F 85.2 °F 72.0 °F 74% 29.90 in 10.0 mi WSW 8.1 mph - N/A   Partly Cloudy
2:53 PM 84.0 °F 89.6 °F 72.0 °F 67% 29.89 in 10.0 mi SSW 3.5 mph - N/A   Partly Cloudy
3:53 PM 84.0 °F 90.2 °F 73.0 °F 69% 29.90 in 10.0 mi WSW 5.8 mph - N/A   Scattered Clouds
4:53 PM 82.9 °F 88.8 °F 73.0 °F 72% 29.89 in 10.0 mi WSW 6.9 mph - N/A   Partly Cloudy
5:53 PM 86.0 °F 91.5 °F 71.1 °F 61% 29.89 in 10.0 mi NNW 8.1 mph - N/A   Scattered Clouds
6:53 PM 84.9 °F 88.2 °F 68.0 °F 57% 29.89 in 10.0 mi NNW 5.8 mph - N/A   Clear
7:53 PM 81.0 °F 84.1 °F 69.1 °F 67% 29.90 in 10.0 mi North 6.9 mph - N/A   Clear
8:53 PM 78.1 °F - 66.9 °F 68% 29.91 in 10.0 mi North 5.8 mph - N/A   Clear
9:53 PM 75.9 °F - 66.0 °F 71% 29.93 in 10.0 mi NNE 5.8 mph - N/A   Clear
10:53 PM 73.9 °F - 66.9 °F 79% 29.94 in 10.0 mi NNE 4.6 mph - N/A   Clear
11:53 PM 75.0 °F - 64.0 °F 69% 29.95 in 10.0 mi ENE 9.2 mph - N/A   Clear